Regional Weather Roundup
Issued by NWS Pendleton, OR

Home | Current Version | Previous Version | Text Only | Print | Product List | Glossary On
Versions: 1 2 3 4 5 6 7 8 9 10 11 12 13 14 15 16 17 18 19 20 21 22 23 24 25 26 27 28 29 30 31 32 33 34 35 36 37 38 39 40 41 42 43 44 45 46 47 48 49 50
000
ASUS46 KPDT 260325
RWRPDT
PENDLETON REGIONAL WEATHER ROUNDUP
NATIONAL WEATHER SERVICE PENDLETON OREGON
800 PM PDT SAT MAR 25 2017

NOTE: FAIR INDICATES FEW OR NO CLOUDS BELOW 12,000 FEET WITH NO
SIGNIFICANT WEATHER AND/OR OBSTRUCTIONS TO VISIBILITY.

# INDICATES UNOFFICIAL STATION AND DATA

WAZ520-260410-
EAST SLOPES OF WASHINGTON CASCADES

CITY            SKY/WX      TMP DP  RH  WIND    PRES   REMARKS
#CLE ELUM HS    N/A         39  32  76  CALM    29.98S
#CLE ELUM LAKE  N/A         36  30  79  CALM    30.03S
#GLENWOOD       N/A         43  36  76  S1      30.05R
#NELSON 3SW     N/A         32  31  96  CALM    30.28R
#NILE           N/A         40  33  76  CALM    29.30R
#TEANAWAY 4NE   N/A         40  35  82  CALM    N/A
#TROUT LAKE 1NE N/A         40  36  85  CALM    30.06S
#TROUT LAKE 1E  N/A         36  33  89  CALM    30.05F
$$

WAZ521-260410-
SIMCOE HIGHLANDS

CITY            SKY/WX      TMP DP  RH  WIND    PRES   REMARKS
#BICKLETON HS   N/A         40  26  57  W12     30.04R WCI 33
#CENTERVILLE 1SWN/A         43  35  73  W7      30.03R
#GOLDENDALE 1NE N/A         45  25  45  W2      N/A
#GOLDENDALE 4W  N/A         45   9  22  W8      30.05R
#GOODNOE HILLS  N/A         46  32  58  SW12    29.93R WCI 40
#LYLE 6NE       N/A         44  37  76  W3      30.03S
#PITT 4SE       N/A         40  33  76  W9      30.08F
$$

WAZ026-260410-
KITTITAS VALLEY

CITY            SKY/WX      TMP DP  RH  WIND    PRES   REMARKS
ELLENSBURG AP   CLOUDY      44  33  65  NW16    30.00S WCI 37
#ELLENSBURG CWU N/A         43  34  70  NW8     29.96S
#ELLENSBURG 3NE N/A         41  34  76  N5      28.08R
#ELLENSBURG 1E  N/A         43  N/A N/A NW1     N/A
#ELLENSBURG 13S N/A         46  31  56  E1      N/A
#KITTITAS 4N    N/A         41  32  70  NW6     30.01S
#KITTITAS 3S    N/A         43  35  73  NW5     30.01S
#THORP 6N       N/A         39  34  82  N6      30.06R
$$

WAZ027-260410-
YAKIMA VALLEY

CITY            SKY/WX      TMP DP  RH  WIND    PRES   REMARKS
SUNNYSIDE AP    CLOUDY      47  32  56  W5      30.02R
YAKIMA AIRPORT  CLOUDY      51  33  50  N6      30.01R
YAKIMA-VAGABOND MOCLEAR     45  33  63  E8      29.99R
#DONALD 2NE     N/A         48  12  23  W5      28.86R
#GRANDVIEW      N/A         50  29  44  CALM    30.04R
#MABTON         N/A         50  34  54  W1      30.01S
#MOXEE 2E       N/A         46   0  14  NE5     29.94R
#NACHES 2SW     N/A         44  35  70  W7      30.03S
#TERRACE HTS    N/A         46  33  60  CALM    29.99R
#TOPPENISH      N/A         50  33  52  CALM    29.93S
#WEST VALLEY    N/A         49  34  56  N2      30.01R
#W YAKIMA       N/A         48  34  58  N3      30.02R
#WHITE SWAN 5E  N/A         48  33  56  S1      30.01R
#WILEY CITY 3W  N/A         45  29  53  CALM    29.97R
$$

WAZ028-260410-
LOWER COLUMBIA BASIN...WASHINGTON

CITY            SKY/WX      TMP DP  RH  WIND    PRES   REMARKS
PASCO           PTCLDY      52  34  50  S7      30.03R
PROSSER AWOS    N/A         46  34  63  CALM    30.05S
RICHLAND AWOS   CLOUDY      51  35  54  S7      30.03R
#BENTON CITY    N/A         48  33  56  CALM    29.93S
#CONNELL 5N     N/A         45  34  65  SW2     30.01S
#CONNELL 5NW    N/A         45  35  68  CALM    29.96S
#ELTOPIA 6NW    N/A         49  35  58  CALM    28.97S
#KAHLOTUS       N/A         49  32  52  W14     30.01S WCI 44
#KENNEWICK 3S   N/A         48  36  63  S3      30.03R
#PATERSON       N/A         48  37  65  N5      30.02S
#SAGEMOOR 2W    N/A         47  35  63  SW3     29.88S
#TOUCHET 2S     N/A         50  40  68  SW5     30.01S
#WEST PASCO     N/A         52  35  52  CALM    30.01R
$$

WAZ029-260410-
FOOTHILLS OF THE BLUES...WASHINGTON

CITY            SKY/WX      TMP DP  RH  WIND    PRES   REMARKS
WALLA WALLA AP  MOCLDY      50  38  63  SE6     30.02F
#CLYDE 6NW      N/A         46  37  71  SW2     30.02R
#DAYTON SCHOOL  N/A         48  29  47  SE5     30.05F
#LOWDEN 2SE     N/A         50  42  74  CALM    30.00S
#PLEASANT VIEW 1N/A         42  36  79  SW3     30.07S
#PRESCOTT       N/A         46  39  76  CALM    30.02S
#WHITMAN COLLEGEN/A         50  39  66  S3      30.09S
#WAITSBURG 5S   N/A         42  37  82  E2      30.14S
#WAITSBURG 8N   N/A         42  N/A N/A S1      29.96S
#WALLA WALLA 5E N/A         44  38  79  E2      N/A
#WALLA WALLA U  N/A         52  41  66  CALM    30.04S
#WHITMAN MISSIONN/A         51  43  74  CALM    30.05R
$$

WAZ030-260410-
BLUE MOUNTAINS...WASHINGTON

CITY            SKY/WX      TMP DP  RH  WIND    PRES   REMARKS
#DIXIE 5SE      N/A         41  33  73  S1      29.94S
$$

ORZ009-041-WAZ024-260410-
COLUMBIA RIVER GORGE

CITY            SKY/WX      TMP DP  RH  WIND    PRES   REMARKS
HOOD RIVER AP   CLOUDY      46  37  71  W7      30.06F
THE DALLES AP   CLOUDY      51  36  56  NW15    30.05S
#ARLINGTON AIRPON/A         49  35  58  W6      30.05R
#CELILO DOT     N/A         51  30  44  SW7     N/A
#LYLE           N/A         50  40  68  NW3     30.08S
#MOSIER 1S      N/A         46  28  49  CALM    30.03S
#MURDOCK        N/A         51  38  61  NW13G24 30.01S
#RUFUS DOT      N/A         53  34  48  W6      N/A
#SMITHVILLE     N/A         50  39  66  N12     29.99S

$$

ORZ510-260410-
NORTH CENTRAL OREGON

CITY            SKY/WX      TMP DP  RH  WIND    PRES   REMARKS
#ANTELOPE       N/A         42  34  73  NE5     29.93R
#CHENOWITH 1W   N/A         42  36  79  NW23    N/A    WCI 32
#COW CYN RST AREN/A         42  31  65  NW3     N/A
#DUFUR          N/A         44  38  79  E3      30.02R
#DUFUR 9E       N/A         40  35  82  CALM    30.11S
#GRASS VALLEY 1SN/A         41  36  82  CALM    30.16R
#KENT DOT       N/A         40  29  64  N2      N/A
#MAUPIN SCHOOL  N/A         49  37  63  CALM    30.08S
#MORO SCHOOL    N/A         43  39  86  NW10    30.11R
#SHANIKO 5WSW   N/A         39  27  62  N8      N/A
#SHANIKO 4NW    N/A         38  32  79  N5      30.00S
#TYGH VALLEY 2NEN/A         48  36  63  CALM    30.03S
#WAPANITIA AIRPON/A         44  35  70  SW1     30.06S
#WASCO 5NE      N/A         43  35  73  W1      30.05R
$$

ORZ511-260410-
CENTRAL OREGON

CITY            SKY/WX      TMP DP  RH  WIND    PRES   REMARKS
BEND AIRPORT    MOCLDY      43  30  60  CALM    30.01R
PRINEVILLE AP   MOCLDY      41  30  65  W5      30.00R
REDMOND AIRPORT CLOUDY      44  29  55  N7      30.00R
#ASHWOOD SCHOOL N/A         45  35  68  N2      29.98R
#BEND 1SW       N/A         42  33  70  CALM    N/A
#BEND-AWBREY    N/A         43  33  67  NE2     30.02R
#BEND-KIM LN    N/A         42  34  73  NW1     29.97R
#CULVER         N/A         43  32  65  CALM    29.96R
#CULVER 8W      N/A         45  32  60  CALM    30.02R
#POWELL BUTTE   N/A         42  31  65  CALM    29.96R
#PRINEVILLE     N/A         44  31  60  CALM    30.10R
#PRINEVILLE 3N  N/A         44  32  62  N1      30.02R
#WARM SPRINGS   N/A         48  35  60  CALM    29.98R

$$


ORZ509-260410-
EAST SLOPES OF OREGON CASCADES

CITY            SKY/WX      TMP DP  RH  WIND    PRES   REMARKS
SISTERS AWOS    N/A         43  32  65  W10     29.97S
#BLUE BOX PASS  N/A         33  N/A N/A NW3     N/A
#CAMP SHERMAN   N/A         41  33  73  CALM    30.13S
#LA PINE DOT    N/A         40  26  57  SW3     N/A
#LA PINE 4NW    N/A         40  31  70  CALM    30.08R
#LAVA BUTTE DOT N/A         39  27  62  S1      N/A
#SISTERS 3N     N/A         40  28  62  CALM    30.05R
#SUNRIVER       N/A         41  33  73  S2      30.05R
#TUMALO 3W      N/A         41  33  73  N1      29.90R
#WANOGA BUTTE D N/A         31  29  92  CALM    N/A

$$

ORZ044-260410-
LOWER COLUMBIA BASIN...OREGON

CITY            SKY/WX      TMP DP  RH  WIND    PRES   REMARKS
HERMISTON       CLOUDY      51  36  56  W8      30.03S
#BOARDMAN SCHOOLN/A         50  36  58  N2      30.03S
#BOARDMAN 8SW   N/A         48  38  68  SW5     30.04R
#I-84 EX 198 DOTN/A         49  37  63  N3      N/A
#IONE SCHOOL    N/A         49  33  54  SW1     30.08R
#UMATILLA       N/A         51  34  52  S6      29.97R
$$

ORZ507-260410-
NORTHERN FOOTHILLS OF THE BLUES

CITY            SKY/WX      TMP DP  RH  WIND    PRES   REMARKS
PENDLETON AIRPT MOCLDY      47  41  79  SW6     30.02S
#ADAMS 3WNW     N/A         45  41  86  CALM    30.05R
#ATHENA         N/A         44  39  82  CALM    30.07S
#CAYUSE         N/A         46  40  79  CALM    30.03S
#HELIX SCHOOL   N/A         47  40  76  CALM    30.05S
#HELIX 3N       N/A         45  38  76  SW2     29.99S
#HOLDMAN 5SE    N/A         47  39  74  SW3     30.02R
#HOLDMAN 6E     N/A         46  40  79  CALM    29.85S
#M-F FERNDALE   N/A         49  38  66  CALM    30.00F
#M-F GROVE ELEM N/A         45  36  70  CALM    30.01S
#M-FREEWATER 5SEN/A         45  38  76  CALM    30.03R
#PENDLETON DNTN N/A         50  34  54  CALM    30.01S
#PDT AQUATIC CTRN/A         49  39  68  W3      30.05S
#PDT SUNRIDGE   N/A         47  41  79  CALM    30.04S
#PENDLETON 7NW  N/A         49  40  71  CALM    N/A
#PILOT ROCK 1S  N/A         43  34  70  CALM    30.03S
#PILOT ROCK     N/A         44  38  79  SW2     30.05S
#TUTUILLA       N/A         45  40  82  CALM    30.05S
#UMAPINE 2E     N/A         46  41  83  CALM    30.01R
#WESTON SCHOOL  N/A         43  35  73  CALM    30.03R

$$

ORZ508-260410-
SOUTHERN FOOTHILLS OF THE BLUES

CITY            SKY/WX      TMP DP  RH  WIND    PRES   REMARKS
LEXINGTON       MOCLDY      46  37  71  W3      30.07R
#AJAX           N/A         42  28  57  CALM    30.17R
#CONDON SCHOOL  N/A         41  35  79  N3      29.97S
#CONDON 5W      N/A         37  31  79  NW6     29.98S
#FOSSIL SCHOOL  N/A         45  37  73  N7      29.96R
#HEPPNER EOC    N/A         42  36  79  CALM    29.99R
#HEPPNER 4NE    N/A         40  34  79  CALM    30.06R
#LEXINGTON 2SE  N/A         46  37  71  CALM    30.02R
#OLEX 4N        N/A         46  38  73  SW6     30.02R
#RUGGS 5NE      N/A         40  35  82  W2      30.20R
#RUGGS 2SW      N/A         40  35  82  W1      30.08R

$$

ORZ502-503-260410-
BLUE MOUNTAINS

CITY            SKY/WX      TMP DP  RH  WIND    PRES   REMARKS
MEACHAM         MOCLDY      37  32  82  CALM    30.01S
#BATTLE MTN DOT N/A         35  33  92  N1      N/A
#GREENHORN 9SW  N/A         39  33  79  CALM    26.18S
#HARDMAN 10S    N/A         36  33  89  CALM    30.18S
#HEPPNER 15SE   N/A         36  32  85  CALM    30.03R
#LADD CYN SMT   N/A         38  34  85  CALM    N/A
#LADD CREEK ODOTN/A         39   7  26  SW1     N/A
#LONG CREEK HS  N/A         40  37  89  CALM    N/A
#N POWDER DOT   N/A         41  35  79  NE9     N/A
#PIKES PEAK     N/A         40  31  70  CALM    27.99S
#TOLLGATE       N/A         33  31  92  CALM    29.85S
#TROY SCHOOL    N/A         44  39  82  CALM    29.90R
#UKIAH          N/A         39  36  89  CALM    29.96F
#WESTON 4E      N/A         38  34  85  CALM    30.03F
$$

ORZ505-260410-
JOHN DAY BASIN

CITY            SKY/WX      TMP DP  RH  WIND    PRES   REMARKS
JOHN DAY        PTCLDY      46  28  49  CALM    29.99S
#JOHN DAY KJDY  N/A         45  N/A N/A CALM    29.32R
#ANTELOPE 9ESE  N/A         50  35  56  E2      N/A
#DAYVILLE SCHOOLN/A         50  33  52  CALM    29.95R
#MITCHELL       N/A         45  35  68  CALM    30.16R
#MITCHELL 8NW   N/A         41  32  70  CALM    29.86R
#MONUMENT HS    N/A         50  35  56  E3      29.95R
#MT. VERNON 5SE N/A         39  31  73  CALM    29.93S
#SPRAY SCHOOL   N/A         49  N/A N/A CALM    N/A
#WINLOCK        N/A         42  35  76  E1      29.97R
$$

ORZ506-260410-
OCHOCO AND JOHN DAY HIGHLANDS

CITY            SKY/WX      TMP DP  RH  WIND    PRES   REMARKS
#HORSE RIDGE DO N/A         42  28  57  NW6     N/A
#PAULINA SCHOOL N/A         45  28  51  W6      N/A
#PINE MTN OBS   N/A         32  26  78  CALM    N/A
#PRAIRIE CITY   N/A         42  31  65  CALM    30.14
#SENECA         N/A         38  N/A N/A N1      N/A
#SENECA 9NW     N/A         35  29  78  CALM    30.04F
$$

ORZ049-260410-
GRANDE RONDE VALLEY

CITY            SKY/WX      TMP DP  RH  WIND    PRES   REMARKS
LA GRANDE       MOCLDY      39  34  82  CALM    30.01S
#COVE           N/A         41  38  89  CALM    30.04R
#COVE SCHOOL    N/A         43  37  79  CALM    30.03S
#COVE 6NW       N/A         41  36  82  CALM    30.05S
#ELGIN 3N       N/A         40  31  70  CALM    30.00R
#ELGIN 1E       N/A         44  36  73  CALM    N/A
#IMBLER SCHOOL  N/A         41  35  79  CALM    29.97F
#ISLAND CITY 4N N/A         46  44  93  CALM    30.08F
#LADD CYN DOT   N/A         41  38  89  SE8     N/A
#UNION 1S       N/A         43  37  79  E1      30.04S
$$

ORZ050-260410-
WALLOWA COUNTY

CITY            SKY/WX      TMP DP  RH  WIND    PRES   REMARKS
JOSEPH AIRPORT  CLOUDY      39  34  82  CALM    30.03S
#IMNAHA SCHOOL  N/A         47  40  76  NW3     30.03R
#IMNAHA 10S     N/A         42  35  76  CALM    30.01S
#JOSEPH 3N      N/A         39  30  70  CALM    30.04R
#JOSEPH 3W      N/A         N/A N/A N/A SW3     29.87R
#LOSTINE        N/A         39  35  85  CALM    29.86R
#LOSTINE 3SE    N/A         39  35  85  CALM    30.06S
#MT HOWARD 8000 N/A         23  19  84  CALM    29.94S
#PROMISE 1S     N/A         34  31  89  CALM    30.19R
#WALLOWA SCHOOL N/A         40  36  85  CALM    29.99S



$$



USA.gov is the U.S. government's official web portal to all federal, state and local government web resources and services.